Find Starlink 35687

NORAD ID: 66524 Int'l Des: 2025-265 Owner: SPXS Country: US Constellation: starlink operational
LEOCIRCULAR

Aktuelle Ansicht

3D-Globus wird geladen...

Über Starlink 35687

Beschreibung wird geladen...

Nächste Überflüge

Passes for default location (London). Set your location on the main map for personalized predictions.

Höhenverlauf

Loading altitude history...

Zweizeiliger Elementsatz

1 66524U 25265J 26159.21471066 .00022017 00000-0 80689-3 0 9999
2 66524 43.0074 127.0868 0000048 305.2031 54.8817 15.27593659 30953
Epoch: 8. Juni 2026 • Age: 18 hours

Aktueller Status

Höhe 495.1 km
Geschwindigkeit 7.62 km/s
Subsatellitenpunkt -40.37°S, 117.77°E
Startdatum 19. Nov. 2025
Alter 0.5 years
Typ internet

Technische Details

Klassifizierung Payload
Masse 575.00 kg
Trockenmasse 530.00 kg
Gesamtmasse 575.00 kg
Länge 0.30 m
Durchmesser 4.10 m
Spannweite 29.00 m
Form Box + pan
Hersteller SPXS
Bus-Typ Starlink V2MO
Phasenstatus In Orbit
Besitzer/Staat SPXS/US

Most Searched